Showing default

JACKAL-004, 69012

Orbit data source: Space-Track

JACKAL-004, 69012 is a payload satellite owned by True Anomaly (US) in SSO that was launched on Sun, 03 May 2026 UTC via an FALCON 9 launch vehicle from the Air Force Western Test Range (AFWTR). Payload-class satellites include a variety of spacecraft equipped with specific instruments for various scientific and technological missions. These include communications satellites like Starlink; space stations such as the ISS; scientific satellites like the Hubble; Earth observation satellites from companies like Planet Labs, Umbra, and HawkEye 360; GPS; miniature CubeSats for education and research; and military/defense satellites.

Loading next visibility...
Identifier
69012, 2026-100AJ
Orbit
SSO
Country
Flag of USUS
Related business
Manufacturer
True Anomaly
Mission
Operational spacecraft
Bus & Motor
JACKAL AOV, Unknown motor
Mass
275 kg wet, 275 kg dry
Launch date (UTC)
2026-05-03 (2 months ago)
Launch vehicle
FALCON 9
Launch site
Air Force Western Test Range (AFWTR)
Object type
Payload
Rocket body
Debris
Shape & HBR
Unknown shape, 14.5 m
Radar Cross Section
Large (>1 m²)

Expand to show TLE details & history
Last TLE update: 6 hours ago

TLE from 6 hours ago
0 JACKAL-004
1 69012U 26100AJ  26175.51902499  .00003718  00000-0  17200-3 0  9999
2 69012  97.3993  73.2275 0007796  25.1581 335.0033 15.20731326  7922
Epoch: 2026-06-24T12:27Z
TLE epoch observation values (Epoch: 2026-06-24T12:27:23.759Z)
Latitude
0.00001°
Longitude
-26.29657°
Altitude
501.862 km
Speed
7.616 km/s
True Right ascension
04h 52m 54s
True Declination
0° 00' 00"
Sunlit
Object was in daylight at epoch
Visualization orbit readout
Latitude
Unknown
Longitude
Unknown
Altitude
Unknown
Speed
Unknown
Apparent Right ascension
Unknown
Apparent Declination
Unknown
Sunlit
N/A
Visualization observer readout
Local Sidereal Time
05:52:48
Azimuth
Unknown
Elevation
Unknown
Doppler factor
Unknown
Orbital elements
Apogee altitude
505.961 km
Perigee altitude
495.235 km
Semi-major axis
6,878.735 km
Eccentricity
0.00078
Inclination
97.3993°
RAAN
73.2275°
Arg. of periapsis
25.1581°
True anomaly
334.96552°
Mean anomaly
335.0033°
Eccentric anomaly
334.98441°
Mean motion
3.80435 °/min
Orbital period
94.63 mins
BSTAR
0.000172
Loading maneuver chart data...
Computing Atmospheric mass density...
Loading historical data...
Loading historical data...
Loading historical data...
Loading historical data...
Loading historical data...
Loading historical data...
Loading historical data...

Documentation

Showing up to 5 results
|